Flag for Falkland Islands Weather past 2 weeks in Stanley, Falkland Islands

Now
36 °F

Fog.


Feels Like: 32 °F
Forecast: 37 / 40 °F
Wind: 5 mph from West

Location: Mount Pleasant Airport

Current Time: Aug 4, 2015 at 12:40:06 AM

Latest Report: Aug 3, 2015 at 11:50 PM


Visibility: N/A

Pressure: 29.80 "Hg

Humidity: 93%

Dew point: 34 °F

Location of StanleyLocation

Historic Weather in Stanley — Graph

°F

Stanley temperature yesterday

Maximum temperature yesterday: 37 °F (at 5:50 AM)
Minimum temperature yesterday: 36 °F (at 12:50 AM)
Average temperature yesterday: 37 °F

Past Weeks' High & Low Weather Summary

 TemperatureHumidityPressure
High48 °F (Jul 25, 11:50 AM)100% (Jul 19, 11:50 PM)30.12 "Hg (Jul 19, 11:50 PM)
Low28 °F (Jul 24, 1:50 AM)54% (Jul 25, 11:50 PM)29.03 "Hg (Jul 23, 5:50 AM)
Average38 °F89%29.57 "Hg
* Reported Jul 19 10:50 PM — Aug 3 10:50 PM, Stanley, Weather by CustomWeather, © 2015

Note: Actual official high and low records may vary slightly from our data, if they occured in-between our weather recording intervals... More about our weather records

Advertising

Stanley weather history for previous 24 hours

 ConditionsComfort  
Time TempWeatherWind HumidityBarometerVisibility
10:50 PM
Mon, Aug 3
36 °FClear.2 mph100%29.77 "Hg10 mi
9:50 PM37 °FPassing clouds.No wind100%29.77 "Hg1 mi
8:50 PM37 °FDrizzle. Mostly cloudy.3 mph100%29.74 "Hg1 mi
7:50 PM37 °FPassing clouds.3 mph100%29.74 "Hg1 mi
6:50 PM37 °FPassing clouds.6 mph100%29.71 "HgN/A
5:50 PM37 °FDrizzle. Overcast.8 mph100%29.71 "Hg2 mi
4:50 PM37 °FDrizzle. Cloudy.10 mph100%29.68 "Hg2 mi
3:50 PM37 °FDrizzle. Mostly cloudy.12 mph100%29.65 "Hg1 mi
2:50 PM37 °FDrizzle. Mostly cloudy.14 mph100%29.62 "Hg1 mi
1:50 PM37 °FDrizzle. Partly sunny.14 mph100%29.62 "Hg2 mi
12:50 PM37 °FDrizzle. Mostly cloudy.15 mph100%29.62 "Hg1 mi
11:50 AM37 °FDrizzle. Cloudy.15 mph100%29.62 "Hg1 mi
10:50 AM37 °FDrizzle. Mostly cloudy.15 mph100%29.59 "Hg1 mi
9:50 AM37 °FDrizzle. Mostly cloudy.12 mph100%29.56 "Hg1 mi
8:50 AM37 °FDrizzle. Mostly cloudy.12 mph93%29.56 "Hg2 mi
7:50 AM37 °FPassing clouds.14 mph93%29.53 "Hg4 mi
6:50 AM37 °FDrizzle. Mostly cloudy.15 mph93%29.50 "Hg4 mi
5:50 AM37 °FDrizzle. Mostly cloudy.15 mph93%29.50 "Hg3 mi
4:50 AM36 °FDrizzle. Mostly cloudy.13 mph100%29.50 "Hg2 mi
3:50 AM36 °FMostly cloudy.14 mph100%29.50 "HgN/A
2:50 AM36 °FDrizzle. Mostly cloudy.17 mph100%29.47 "HgN/A
1:50 AM36 °FDrizzle. Mostly cloudy.15 mph93%29.47 "HgN/A
12:50 AM36 °FMostly cloudy.14 mph93%29.47 "HgN/A
Weather by CustomWeather, © 2015

See weather overviewHow to use our weather pages